Вернуться в каталог

STARLINK-32149

АктивенСвязьVLEO
NORAD 60292·PAYLOAD·🇺🇸 United States

Запущен Jul 28, 2024 с Cape Canaveral Space Force Station

Loading…

Ближайшие Пролёты (ближайшие 24 часа)

TLE

СвежийSource: CelesTrak SupGP

Эпоха: Sep 14, 2026, 22:22 UTC

1 60292C 24132Q   26257.93243056  .00035872  00000+0  11535-2 0  2573
2 60292  53.1574 252.3589 0001368  96.1928 106.4847 15.31685754    19

Отслеживайте STARLINK-32149 в реальном времени с AllMySat

Download on the App Store